Location: Newark
(49.5647°N, 8.2922°E)
Time: 14:20:17
(UTC+00:00)

Transit 2A - Pass Details

Date: 24 February 2020
Orbit: 597 x 961 km, 66.7° (Epoch: 30 March)

Event Time Altitude Azimuth Distance (km) Brightness Sun altitude
Rises 19:46:03 0° 325° (NW) 3,043 9.9 -27.3°
Reaches altitude 10° 19:48:20 10° 331° (NNW) 2,175 8.9 -27.7°
Enters shadow 19:51:55 42° 3° (N) 1,057 6.7 -28.2°
Maximum altitude 19:53:11 52° 48° (NE) 934 - -28.4°
Drops below altitude 10° 19:58:33 10° 125° (SE) 2,401 - -29.2°
Sets 20:01:10 0° 130° (SE) 3,391 - -29.6°
